Tracking 31027 objects as of 19-Jul-2025
HD Live streaming from Space Station
objects crossing your sky now

PEGASUS DEB

Track PEGASUS DEB now!
10-day predictions


NORAD ID: 24129
Int'l Code: 1994-029GC
Perigee: 545.8 km
Apogee: 1,342.2 km
Inclination: 81.5 °
Period: 103.8 minutes
Semi major axis: 7315 km
RCS: 0.0937 m2 (small)
Launch date: May 19, 1994
Source: United States (US)
Launch site: AIR FORCE WESTERN TEST RANGE (AFWTR)

Note: This is SATELLITE DEBRIS
Your satellite tracking list
STARLINK-31879
Track 1 satellite(s)




NASA's NSSDC Master Catalog

Two Line Element Set (TLE):
1 24129U 94029GC  25199.73167340  .00000888  00000-0  22339-3 0  9995
2 24129  81.4766 107.8129 0544335 258.6222 125.0107 13.87646382453625
Source of the keplerian elements: AFSPC